Temperature
7 7 8 8 8 8 8 9 10 10 9 8 8 7 6 5 5 4 4 4 5 5 6 7 7 8 8 8 8 9 9 9 9 9 9 9 9 9 9 8 8 8 8 8
7 8 8 8 8 8 8 8 9 9 8 7 7 6 5 5 4 4 3 3 4 5 5 6 6 7 7 7 8 8 8 8 8 8 8 8 8 8 8 8 8 8 8 8
8 8 8 9 8 7 7 7 8 9 8 6 6 5 4 4 3 3 2 3 3 4 4 5 5 6 6 6 7 7 7 7 7 7 7 7 7 7 7 7 7 7 7 7
8 8 8 8 6 6 7 6 6 6 6 6 5 4 3 2 2 2 2 2 3 3 4 4 4 4 5 5 5 6 6 6 6 6 6 6 6 6 6 6 6 6 6 6
8 8 8 7 6 6 7 7 5 6 5 4 3 4 3 2 2 1 2 2 2 3 3 3 3 4 4 4 4 5 5 5 5 5 5 5 5 5 5 5 5 5 5 5
7 8 8 8 6 5 6 7 5 5 5 4 4 6 5 2 1 1 2 2 2 2 2 2 2 3 3 3 3 4 4 4 4 4 4 4 5 5 5 5 5 5 4 4
7 7 8 6 5 5 7 8 4 4 3 3 4 4 2 1 1 1 1 1 1 2 2 2 2 2 2 2 2 3 3 3 3 3 3 3 4 4 4 4 4 4 4 4
7 7 7 5 5 6 6 3 3 2 2 2 1 1 1 1 1 1 1 1 1 1 1 1 1 1 1 1 1 1 2 2 2 2 3 3 3 3 3 3 3 3 3 3
7 7 5 3 4 3 3 3 2 2 1 1 1 1 0 0 0 0 0 0 0 0 0 0 0 0 0 0 0 0 1 1 1 1 1 2 2 2 2 2 2 2 2 2
5 5 3 2 2 2 2 2 2 2 1 1 0 0 0 0 -0 -0 -0 -0 -0 -0 -0 -0 -1 -1 -1 -1 -1 -1 -1 -0 -0 0 0 1 1 1 1 1 2 2 2 2
5 4 3 2 2 2 2 2 1 1 1 1 0 -0 -0 -1 -1 -1 -1 -1 -1 -1 -1 -1 -1 -1 -1 -2 -2 -2 -1 -1 -1 -1 -1 -1 -0 -0 0 0 1 1 1 1
6 5 4 3 2 2 2 1 1 1 1 0 -0 -1 -1 -1 -1 -1 -2 -2 -2 -2 -2 -2 -2 -2 -2 -2 -2 -2 -2 -2 -2 -2 -2 -2 -1 -1 -0 -0 -0 0 0 0
3 2 2 2 2 2 1 1 1 0 -0 -0 -1 -1 -1 -1 -2 -2 -2 -2 -2 -3 -3 -3 -3 -3 -3 -3 -3 -3 -3 -3 -3 -3 -3 -2 -2 -2 -1 -1 -1 -0 -0 -0
2 2 1 1 1 1 1 1 0 -0 -1 -1 -1 -1 -2 -2 -2 -2 -2 -3 -3 -3 -3 -3 -3 -3 -3 -4 -4 -4 -4 -4 -4 -4 -3 -3 -3 -3 -2 -2 -2 -1 -1 -0
2 2 1 1 1 1 0 -0 -0 -1 -1 -1 -2 -2 -2 -2 -2 -2 -3 -3 -3 -3 -3 -4 -4 -4 -4 -4 -4 -4 -4 -4 -4 -4 -4 -4 -3 -3 -3 -3 -2 -2 -1 -1
2 1 1 1 1 0 -0 -0 -1 -1 -1 -2 -2 -2 -2 -3 -3 -3 -3 -3 -4 -4 -4 -4 -4 -4 -4 -5 -5 -5 -5 -5 -5 -5 -5 -4 -4 -4 -4 -3 -3 -3 -2 -2
1 1 1 0 0 -0 -0 -1 -1 -1 -2 -2 -2 -3 -3 -3 -3 -3 -3 -4 -4 -4 -4 -5 -5 -5 -5 -5 -5 -5 -5 -5 -5 -5 -5 -5 -5 -4 -4 -4 -3 -3 -3 -2
2 2 1 1 0 -0 -1 -1 -1 -2 -2 -2 -3 -3 -3 -4 -4 -4 -4 -4 -4 -4 -5 -5 -5 -5 -5 -5 -6 -6 -6 -6 -5 -5 -5 -5 -5 -5 -4 -4 -4 -4 -3 -3
1 1 1 0 -0 -1 -1 -1 -2 -2 -3 -3 -3 -3 -4 -4 -4 -4 -5 -5 -5 -5 -5 -5 -6 -6 -6 -6 -6 -6 -6 -6 -6 -6 -6 -6 -5 -5 -5 -5 -4 -4 -4 -3
1 0 0 -0 -1 -1 -2 -2 -2 -3 -3 -3 -4 -4 -4 -4 -5 -5 -5 -5 -6 -6 -6 -6 -6 -6 -6 -6 -6 -6 -6 -6 -6 -6 -6 -6 -6 -5 -5 -5 -5 -5 -4 -4
0 0 -0 -1 -1 -2 -2 -3 -3 -3 -4 -4 -4 -5 -5 -5 -5 -6 -6 -6 -6 -6 -7 -7 -7 -7 -7 -7 -7 -7 -7 -7 -7 -7 -7 -6 -6 -6 -5 -5 -5 -5 -5 -4
-0 -1 -1 -1 -2 -2 -3 -3 -4 -4 -4 -5 -5 -5 -6 -6 -6 -6 -6 -7 -7 -7 -7 -7 -7 -7 -7 -7 -7 -7 -7 -7 -7 -7 -7 -7 -6 -6 -6 -6 -6 -5 -5 -5
-1 -1 -2 -2 -3 -3 -3 -4 -4 -5 -5 -5 -6 -6 -6 -6 -7 -7 -7 -7 -7 -7 -7 -7 -7 -7 -7 -7 -7 -7 -7 -7 -7 -7 -7 -7 -7 -7 -6 -6 -6 -6 -5 -5
-1 -2 -2 -3 -3 -4 -4 -4 -5 -5 -5 -6 -6 -6 -7 -7 -7 -7 -8 -8 -8 -8 -8 -8 -8 -8 -8 -8 -8 -8 -7 -7 -7 -7 -7 -7 -7 -7 -7 -6 -6 -6 -6 -6
-2 -3 -3 -3 -4 -4 -5 -5 -5 -6 -6 -6 -7 -7 -7 -8 -8 -8 -8 -8 -8 -8 -8 -8 -8 -8 -8 -8 -8 -8 -8 -8 -8 -8 -7 -7 -7 -7 -7 -7 -6 -6 -6 -6
-3 -3 -4 -4 -5 -5 -6 -6 -6 -7 -7 -7 -7 -7 -8 -8 -8 -8 -8 -8 -8 -8 -8 -8 -8 -8 -8 -8 -8 -8 -8 -8 -8 -8 -7 -7 -7 -7 -7 -7 -7 -7 -7 -6
-3 -4 -4 -5 -5 -6 -6 -7 -7 -7 -7 -8 -8 -8 -8 -8 -8 -8 -8 -8 -8 -8 -8 -8 -8 -8 -8 -8 -8 -8 -8 -8 -8 -8 -8 -8 -7 -7 -7 -7 -7 -7 -7 -7
Wind_Speed
3 2 1 2 2 2 1 1 1 3 2 2 2 3 4 5 7 8 9 10 11 10 9 10 10 9 8 8 7 6 5 3 2 2 1 1 3 4 4 5 6 7 7 7
2 3 2 3 3 2 2 1 2 2 1 3 3 4 5 5 6 7 8 9 9 9 10 10 10 9 9 8 8 6 5 4 3 2 2 2 3 4 5 5 6 6 7 8
1 3 1 1 3 1 1 1 0 1 1 2 2 3 3 4 5 6 7 8 9 9 9 9 9 9 9 9 8 7 6 5 4 3 3 2 3 4 6 6 7 7 7 8
0 0 1 2 2 1 1 1 1 1 1 1 2 3 3 4 4 5 6 7 8 8 8 8 8 8 8 7 7 6 6 5 5 4 4 3 4 5 6 6 7 7 8 8
0 1 1 1 1 0 1 0 0 1 1 2 3 2 1 3 4 4 5 6 7 7 8 8 8 8 8 7 7 6 6 6 6 5 5 5 5 6 6 6 7 7 7 8
1 2 2 2 2 0 2 2 2 2 2 2 2 3 1 2 4 5 6 6 7 7 7 8 8 8 8 8 8 8 8 8 7 7 6 6 6 6 6 6 7 6 6 7
3 3 2 1 0 2 3 1 3 3 2 2 1 2 2 3 4 5 6 7 7 7 7 7 8 8 8 8 8 9 9 9 8 7 7 7 6 5 6 6 6 7 8 8
4 4 2 3 3 3 1 3 3 2 2 1 1 2 3 4 5 6 6 7 7 7 8 8 8 7 8 8 9 9 9 9 9 8 6 5 6 6 6 7 7 8 8 8
3 1 2 2 2 0 1 2 2 1 1 1 2 3 4 5 6 6 7 7 7 8 9 8 8 8 9 9 9 9 10 10 9 8 7 6 6 6 6 6 7 7 7 8
3 4 3 3 3 2 2 2 2 1 2 2 4 5 6 6 6 7 8 8 8 9 10 10 9 9 9 10 9 9 10 10 8 8 7 6 5 6 6 7 7 7 8 8
5 3 3 4 6 5 4 3 2 2 2 3 5 6 6 7 7 8 8 8 8 9 10 11 11 10 10 9 9 10 10 9 8 7 7 7 6 7 8 8 8 8 8 8
4 4 4 3 4 6 5 4 4 3 4 4 5 6 7 7 8 8 9 9 9 10 11 11 11 11 11 9 9 10 10 9 7 7 7 7 7 7 9 10 12 12 11 9
1 2 2 2 4 5 5 4 4 4 5 5 6 6 7 8 8 8 9 9 10 10 11 12 12 12 11 10 9 10 10 10 8 8 7 7 7 7 7 8 11 13 14 14
4 4 3 4 4 4 4 3 3 4 5 6 6 7 7 8 9 10 10 10 10 11 11 12 12 13 11 10 10 11 11 10 10 8 8 8 7 7 7 7 6 6 9 14
5 5 3 3 3 3 2 3 4 5 6 6 6 7 8 9 10 11 10 10 10 11 12 12 12 13 11 10 10 11 10 9 8 8 8 8 8 7 7 7 7 6 5 7
6 4 4 4 4 4 3 4 6 7 7 7 7 8 8 9 10 11 11 10 10 12 12 12 12 12 11 10 11 10 9 11 11 9 8 8 7 7 7 7 7 6 6 5
7 6 5 5 6 5 5 6 6 7 7 8 9 9 9 10 11 11 11 10 10 12 12 12 12 12 11 11 11 9 9 10 11 9 8 8 7 7 7 7 7 7 6 7
5 4 5 4 5 5 6 6 6 7 8 8 9 9 9 10 11 12 12 11 11 12 12 11 11 11 11 11 10 8 8 8 8 8 8 7 7 7 7 7 7 7 6 6
4 4 3 3 3 4 4 5 6 6 7 7 8 9 9 10 11 11 11 11 12 12 11 10 12 12 11 11 10 8 8 8 8 8 7 9 8 7 6 6 6 6 5 5
3 3 2 2 2 3 4 5 5 6 6 6 8 9 10 10 10 10 10 11 10 9 11 12 12 11 10 10 10 7 8 8 8 7 7 7 7 6 6 6 6 5 5 5
3 2 2 2 2 3 4 4 5 6 7 6 7 9 10 10 10 9 9 10 10 10 11 13 10 9 8 9 10 7 7 7 7 7 7 7 6 6 6 5 5 5 4 4
3 2 1 2 3 4 4 4 5 6 7 7 8 8 9 10 10 9 9 8 10 13 11 9 8 10 11 11 7 7 7 7 7 6 6 6 6 6 5 5 5 4 4 4
2 1 1 2 3 4 4 4 5 6 7 7 8 8 8 9 8 8 9 8 9 13 11 8 11 15 15 9 7 7 6 6 6 6 6 5 5 5 5 4 4 3 3 3
2 1 1 1 2 3 4 5 6 5 6 7 7 7 8 8 7 6 7 11 14 14 10 11 15 15 13 7 6 6 6 6 5 5 5 5 4 4 4 3 3 3 2 2
2 1 0 1 2 3 4 6 6 6 6 6 7 7 6 6 7 8 9 10 13 13 9 11 13 13 9 6 6 6 6 5 5 5 5 4 4 3 3 3 2 2 2 2
1 1 0 1 2 3 3 4 5 5 6 6 7 7 7 6 7 8 7 9 10 11 9 7 8 8 6 6 6 6 6 6 6 5 5 4 4 3 3 3 3 2 2 2
2 1 1 1 2 3 3 4 4 5 6 6 8 8 8 8 7 8 9 8 8 8 7 7 7 6 6 6 6 6 5 5 5 4 4 4 3 3 3 3 3 2 2 2
Wind_Direction
48 30 42 43 37 55 66 11 84 103 111 109 96 84 69 62 60 54 46 39 33 29 26 23 21 19 16 12 8 1 355 348 342 328 274 203 194 188 182 181 178 172 169 170
63 39 43 45 24 31 41 62 121 124 104 67 83 79 67 55 52 47 37 29 22 18 15 14 11 6 4 3 358 351 343 334 329 316 287 226 205 193 187 184 179 175 178 177
65 343 288 22 358 330 64 36 267 219 92 109 101 80 63 48 44 36 23 15 10 5 3 0 358 353 352 350 348 345 340 331 323 307 283 253 221 205 198 193 186 185 186 185
55 285 207 56 33 350 151 66 7 44 72 121 123 103 71 43 35 23 9 1 358 354 351 348 346 345 341 341 341 338 334 329 319 304 284 264 236 220 212 203 197 195 193 190
179 233 253 155 128 202 273 251 313 194 130 106 124 148 100 42 20 3 354 348 344 342 339 338 341 340 334 334 335 334 332 326 315 298 280 262 244 232 220 210 206 204 198 194
180 242 234 113 107 348 243 226 144 176 166 153 182 248 339 21 347 344 343 340 336 334 334 335 338 335 330 329 329 329 326 318 308 293 277 264 253 242 230 216 211 205 203 201
211 243 264 105 143 205 223 62 133 164 168 170 215 320 351 331 328 331 331 330 328 326 326 328 328 326 321 321 321 320 316 311 304 293 280 269 260 245 232 219 209 208 206 205
202 222 232 130 167 206 15 93 138 153 165 192 250 304 306 310 314 318 321 322 323 319 317 319 322 317 311 311 314 314 311 307 303 298 288 272 259 246 232 219 212 212 210 209
224 245 64 159 199 62 126 158 162 176 194 213 262 282 294 300 305 310 313 315 316 314 312 313 316 313 306 308 311 310 307 304 302 299 289 274 260 248 235 223 219 215 212 213
249 244 222 212 209 197 184 179 169 188 213 236 265 281 291 297 302 307 310 311 313 312 309 309 312 309 304 305 306 304 302 301 298 295 289 278 264 249 238 230 225 220 217 217
242 239 223 221 211 198 182 179 184 211 244 256 270 281 289 295 299 303 305 307 307 304 303 304 307 305 304 303 302 298 296 294 292 288 283 278 266 253 246 242 238 232 226 220
224 198 199 194 184 184 190 203 215 239 262 267 274 283 289 291 295 298 299 301 300 298 298 301 303 301 301 299 297 295 292 291 288 286 282 277 275 272 254 249 251 248 244 234
205 144 166 146 162 180 200 215 228 244 262 276 279 282 286 290 294 295 295 294 294 295 296 298 298 297 298 296 292 287 285 287 285 281 277 275 273 270 274 263 249 245 241 237
172 154 170 184 188 190 207 224 240 256 265 273 280 284 285 287 289 290 292 294 295 295 294 295 295 294 297 295 288 284 283 281 278 275 274 272 270 268 266 265 264 258 243 237
192 198 190 166 176 192 208 227 252 265 274 279 281 282 284 286 288 291 294 295 294 292 292 294 293 294 298 295 288 284 282 278 276 275 273 271 268 266 264 261 259 260 256 239
177 177 181 194 211 218 230 244 258 271 279 283 284 285 286 286 288 290 292 293 291 291 294 295 293 295 299 294 289 285 279 275 276 275 273 269 264 260 261 258 256 254 247 239
165 185 199 215 227 235 243 251 260 272 279 281 286 292 292 291 291 291 293 294 290 287 288 288 290 295 296 291 288 286 285 282 275 273 269 266 263 259 257 256 255 255 252 236
196 193 194 210 226 240 254 261 266 272 277 284 292 293 291 290 291 295 298 300 297 292 288 288 292 296 294 292 289 286 283 282 277 273 272 269 266 262 258 255 256 258 259 247
182 185 196 214 228 241 257 268 274 277 282 287 290 289 289 288 289 293 299 299 296 297 301 303 302 298 294 293 293 284 282 282 281 278 276 273 271 267 261 257 257 256 255 250
165 176 195 223 243 252 267 280 287 287 289 290 290 291 293 294 297 299 299 294 289 294 302 304 303 298 296 295 294 286 283 281 280 280 279 275 272 269 263 258 256 255 255 252
167 177 200 242 273 280 283 290 291 293 298 296 291 292 296 300 303 302 301 300 304 310 308 305 304 301 298 297 296 288 283 282 281 281 280 277 275 272 267 261 257 255 253 252
169 181 227 274 290 299 307 305 299 299 303 302 299 299 301 304 307 304 294 292 304 313 314 306 305 306 310 305 296 291 288 285 284 283 282 281 279 276 271 265 261 258 253 251
160 182 238 281 295 304 313 315 312 308 305 305 304 306 306 304 305 304 306 310 312 315 314 305 311 315 318 313 302 295 291 290 288 285 285 284 283 281 277 272 269 266 260 254
150 167 273 314 316 314 319 326 322 313 308 304 304 306 307 308 307 303 301 309 316 315 312 311 318 321 322 314 306 303 301 299 296 293 291 290 288 286 284 280 278 278 274 269
142 140 50 344 328 321 320 323 323 322 322 319 318 318 315 309 306 311 312 312 317 319 316 317 321 325 323 313 311 309 307 307 309 307 302 301 299 296 297 297 295 293 291 288
127 109 356 328 324 322 324 325 324 325 325 323 323 324 324 320 315 314 314 316 317 320 319 317 319 322 320 317 314 313 312 312 312 313 313 310 310 308 307 311 311 305 301 298
105 77 24 358 346 336 327 323 320 320 322 320 319 322 324 323 321 322 322 321 323 322 321 322 322 321 321 321 319 318 316 315 315 315 315 315 316 315 314 310 306 307 307 305
Height
1465 1465 1463 1462 1461 1460 1460 1457 1455 1458 1460 1465 1467 1469 1469 1469 1468 1467 1466 1465 1465 1464 1463 1463 1462 1462 1461 1461 1461 1460 1460 1461 1460 1460 1461 1461 1462 1462 1463 1464 1465 1467 1469 1471
1467 1466 1464 1464 1463 1463 1463 1462 1461 1462 1465 1469 1471 1471 1471 1471 1470 1470 1469 1468 1467 1466 1464 1463 1462 1462 1461 1460 1459 1459 1459 1458 1458 1458 1458 1458 1458 1459 1460 1461 1462 1463 1465 1467
1464 1466 1463 1461 1466 1466 1466 1468 1464 1462 1467 1471 1472 1473 1473 1473 1473 1472 1471 1470 1468 1467 1465 1464 1462 1461 1460 1459 1458 1457 1456 1455 1455 1454 1454 1454 1454 1455 1456 1457 1458 1459 1460 1462
1466 1465 1467 1469 1472 1471 1469 1470 1471 1470 1471 1472 1473 1474 1475 1474 1473 1473 1471 1470 1468 1467 1465 1464 1462 1460 1459 1457 1456 1455 1454 1452 1452 1451 1450 1450 1450 1451 1451 1452 1453 1454 1455 1457
1466 1463 1462 1468 1471 1472 1469 1469 1472 1472 1473 1474 1475 1474 1474 1474 1473 1473 1471 1470 1468 1466 1464 1462 1460 1459 1457 1455 1453 1452 1450 1449 1448 1447 1446 1446 1446 1446 1447 1447 1448 1449 1451 1452
1468 1464 1461 1466 1472 1473 1473 1467 1473 1473 1473 1474 1474 1471 1473 1474 1472 1471 1470 1468 1466 1464 1462 1460 1458 1456 1454 1452 1450 1448 1447 1445 1444 1443 1442 1442 1441 1441 1442 1442 1443 1444 1445 1446
1468 1466 1461 1470 1473 1474 1469 1466 1473 1473 1474 1474 1474 1474 1475 1473 1471 1470 1468 1466 1464 1462 1460 1457 1455 1453 1451 1449 1447 1445 1443 1441 1440 1438 1437 1436 1436 1436 1436 1437 1437 1438 1439 1440
1467 1466 1466 1471 1471 1470 1469 1472 1472 1473 1474 1474 1474 1473 1472 1471 1470 1468 1466 1464 1462 1459 1457 1455 1452 1450 1447 1445 1443 1441 1439 1437 1435 1433 1432 1431 1430 1430 1430 1431 1431 1432 1433 1433
1466 1467 1470 1471 1471 1471 1471 1472 1473 1473 1473 1473 1472 1471 1470 1469 1467 1466 1464 1461 1459 1456 1454 1451 1449 1446 1444 1441 1439 1436 1434 1432 1430 1428 1427 1426 1425 1425 1425 1425 1425 1425 1426 1427
1469 1467 1469 1470 1470 1470 1471 1471 1472 1472 1472 1471 1471 1469 1468 1467 1465 1463 1461 1458 1456 1453 1450 1448 1445 1443 1440 1437 1434 1431 1429 1426 1425 1423 1422 1421 1420 1419 1419 1418 1419 1419 1420 1421
1466 1467 1468 1468 1468 1469 1469 1470 1470 1470 1470 1469 1468 1467 1466 1464 1462 1460 1457 1455 1452 1449 1446 1443 1441 1438 1435 1432 1429 1426 1424 1421 1419 1418 1416 1415 1414 1413 1413 1412 1413 1413 1414 1415
1460 1463 1464 1465 1465 1467 1468 1468 1468 1468 1467 1467 1466 1464 1463 1461 1459 1456 1453 1451 1448 1445 1442 1439 1436 1433 1430 1427 1424 1422 1419 1416 1414 1412 1410 1409 1408 1407 1406 1406 1406 1407 1407 1409
1461 1461 1462 1463 1464 1465 1466 1466 1466 1466 1465 1464 1462 1461 1459 1457 1455 1452 1449 1447 1444 1440 1437 1434 1431 1428 1425 1422 1419 1416 1414 1411 1409 1407 1405 1403 1402 1401 1400 1400 1400 1400 1401 1402
1459 1460 1461 1462 1463 1463 1464 1464 1463 1463 1462 1460 1459 1457 1455 1453 1450 1448 1445 1442 1439 1436 1432 1429 1426 1423 1420 1417 1414 1411 1408 1406 1403 1401 1400 1398 1396 1395 1394 1394 1393 1393 1394 1395
1457 1458 1459 1460 1461 1461 1461 1461 1460 1459 1458 1457 1455 1453 1451 1448 1446 1443 1440 1437 1434 1431 1427 1424 1420 1417 1414 1411 1408 1405 1402 1400 1398 1396 1394 1392 1391 1390 1389 1388 1388 1387 1388 1389
1454 1456 1457 1458 1458 1458 1458 1458 1457 1456 1454 1453 1451 1449 1446 1444 1441 1438 1435 1432 1429 1425 1422 1418 1415 1411 1408 1405 1401 1398 1396 1394 1392 1390 1388 1386 1385 1384 1383 1382 1382 1382 1382 1383
1452 1453 1454 1455 1455 1455 1455 1455 1453 1452 1450 1448 1446 1444 1442 1439 1436 1433 1430 1427 1423 1419 1416 1412 1408 1405 1402 1399 1395 1392 1390 1387 1385 1383 1382 1380 1379 1378 1377 1377 1376 1376 1377 1377
1450 1451 1452 1452 1452 1452 1451 1451 1449 1448 1446 1444 1442 1439 1437 1434 1430 1427 1424 1420 1417 1413 1410 1406 1403 1399 1396 1393 1389 1386 1384 1381 1379 1377 1376 1374 1373 1372 1372 1371 1371 1371 1371 1372
1447 1449 1449 1449 1449 1449 1448 1447 1445 1444 1442 1440 1437 1434 1432 1429 1425 1422 1418 1415 1411 1407 1404 1400 1397 1393 1390 1387 1384 1381 1378 1376 1374 1372 1370 1369 1368 1367 1366 1366 1365 1365 1365 1366
1445 1446 1447 1447 1446 1445 1444 1443 1441 1440 1438 1435 1432 1429 1426 1424 1420 1417 1413 1409 1406 1402 1398 1394 1391 1388 1384 1382 1379 1376 1373 1371 1368 1367 1365 1364 1363 1362 1361 1360 1360 1360 1360 1361
1443 1444 1444 1444 1443 1442 1441 1439 1437 1435 1433 1431 1428 1424 1421 1418 1415 1412 1407 1404 1401 1397 1393 1389 1386 1383 1380 1377 1374 1371 1368 1366 1364 1362 1360 1359 1358 1357 1356 1356 1356 1356 1356 1356
1441 1441 1441 1441 1440 1439 1437 1435 1433 1431 1428 1426 1423 1420 1417 1413 1410 1407 1403 1400 1396 1392 1388 1385 1382 1379 1376 1373 1370 1367 1364 1362 1360 1358 1356 1355 1354 1353 1352 1352 1352 1352 1352 1352
1439 1439 1438 1438 1437 1435 1434 1432 1429 1427 1424 1422 1419 1416 1412 1409 1406 1402 1399 1396 1392 1388 1384 1381 1378 1375 1372 1369 1366 1363 1360 1358 1356 1354 1353 1351 1350 1349 1349 1348 1348 1348 1348 1348
1436 1436 1436 1435 1433 1432 1430 1428 1426 1423 1420 1418 1415 1412 1409 1405 1402 1399 1395 1392 1388 1384 1381 1378 1375 1371 1368 1365 1362 1360 1357 1355 1353 1351 1350 1348 1347 1346 1345 1345 1345 1344 1344 1345
1434 1433 1433 1432 1430 1428 1427 1424 1422 1419 1417 1414 1411 1408 1405 1402 1399 1395 1392 1388 1385 1381 1378 1375 1372 1368 1365 1362 1360 1357 1355 1352 1351 1349 1347 1346 1345 1344 1343 1342 1342 1342 1342 1342
1431 1431 1430 1428 1427 1425 1423 1421 1418 1416 1413 1410 1408 1405 1402 1399 1395 1392 1389 1385 1382 1379 1375 1372 1369 1366 1363 1360 1358 1355 1353 1351 1349 1347 1345 1344 1343 1342 1341 1340 1340 1339 1339 1339
1429 1428 1427 1426 1424 1422 1420 1418 1415 1413 1410 1407 1404 1402 1399 1395 1392 1389 1386 1383 1380 1376 1373 1370 1367 1364 1361 1358 1356 1353 1351 1349 1347 1345 1344 1342 1341 1340 1339 1338 1338 1338 1337 1337